カタログに戻る

STARLINK-32235

運用中通信VLEO
NORAD 60739·PAYLOAD·🇺🇸 United States

打ち上げ Aug 28, 2024 から Cape Canaveral Space Force Station

Loading…

次のパス (今後24時間)

TLE

最新Source: CelesTrak SupGP

元期: Sep 14, 2026, 21:36 UTC

1 60739C 24152V   26257.90048611 -.00042216  00000+0 -12474-2 0  2573
2 60739  53.1573 107.8715 0001393  82.3954 281.6149 15.34408703    14

AllMySatでSTARLINK-32235をリアルタイム追跡

Download on the App Store